| time (UTC) | temp F | wind direction | speed knots | gust knots | rain 1hr in | rain 24hr in | rain mn in | humidity % | barometer mb |
| 20260903202815 | 75 | 63 | 0.0 | 0.9 | 0.00 | 0.00 | 0.00 | 70 | 1020.7 |
| 20260903202804 | 75 | 56 | 0.0 | 0.9 | 0.00 | 0.00 | 0.00 | 70 | 1019.9 |
| 20260903202318 | 75 | 45 | 0.0 | 1.7 | 0.00 | 0.00 | 0.00 | 69 | 1020.7 |
| 20260903202306 | 75 | 193 | 0.0 | 0.9 | 0.00 | 0.00 | 0.00 | 69 | 1019.9 |
| 20260903201814 | 75 | 63 | 0.9 | 1.7 | 0.00 | 0.00 | 0.00 | 69 | 1020.6 |
| 20260903201804 | 75 | 41 | 0.9 | 1.7 | 0.00 | 0.00 | 0.00 | 69 | 1019.7 |
| 20260903201546 | 61 | 64 | 0.0 | 0.9 | 0.00 | 0.00 | 0.00 | 88 | 1021.2 |
| 20260903201317 | 76 | 45 | 0.9 | 0.9 | 0.00 | 0.00 | 0.00 | 68 | 1020.5 |
| 20260903200815 | 76 | 45 | 0.0 | 0.9 | 0.00 | 0.00 | 0.00 | 67 | 1020.5 |
| 20260903200804 | 76 | 113 | 0.0 | 0.9 | 0.00 | 0.00 | 0.00 | 67 | 1019.8 |
| 20260903200317 | 76 | 223 | 0.0 | 0.9 | 0.00 | 0.00 | 0.00 | 67 | 1020.5 |
| 20260903200304 | 76 | 343 | 0.0 | 0.9 | 0.00 | 0.00 | 0.00 | 67 | 1019.7 |
| 20260903200043 | 61 | 0 | 0.0 | 0.9 | 0.00 | 0.00 | 0.00 | 86 | 1021.1 |
| 20260903195814 | 76 | 269 | 0.0 | 0.9 | 0.00 | 0.00 | 0.00 | 67 | 1020.3 |
| 20260903195317 | 76 | 178 | 0.0 | 0.9 | 0.00 | 0.00 | 0.00 | 66 | 1020.2 |
| 20260903195306 | 77 | 357 | 0.0 | 0.9 | 0.00 | 0.00 | 0.00 | 66 | 1019.5 |
| 20260903194813 | 77 | 269 | 0.9 | 1.7 | 0.00 | 0.00 | 0.00 | 66 | 1020.1 |
| 20260903194804 | 77 | 37 | 0.9 | 0.9 | 0.00 | 0.00 | 0.00 | 66 | 1019.5 |
| 20260903194546 | 61 | 9 | 0.0 | 0.9 | 0.00 | 0.00 | 0.00 | 85 | 1020.8 |
| 20260903194317 | 77 | 28 | 0.9 | 1.7 | 0.00 | 0.00 | 0.00 | 64 | 1020.2 |
| 20260903194304 | 77 | 47 | 0.9 | 1.7 | 0.00 | 0.00 | 0.00 | 64 | 1019.5 |
| 20260903193814 | 78 | 28 | 0.0 | 1.7 | 0.00 | 0.00 | 0.00 | 64 | 1020.1 |
| 20260903193804 | 78 | 1 | 0.0 | 1.7 | 0.00 | 0.00 | 0.00 | 64 | 1019.4 |
| 20260903193316 | 78 | 45 | 0.9 | 1.7 | 0.00 | 0.00 | 0.00 | 63 | 1020.0 |
| 20260903193303 | 78 | 38 | 0.9 | 1.7 | 0.00 | 0.00 | 0.00 | 63 | 1019.4 |
| 20260903193047 | 61 | 0 | 0.0 | 1.7 | 0.00 | 0.00 | 0.00 | 83 | 1020.8 |
| 20260903192813 | 79 | 45 | 0.0 | 2.6 | 0.00 | 0.00 | 0.00 | 63 | 1020.0 |
| 20260903192318 | 79 | 1 | 0.9 | 2.6 | 0.00 | 0.00 | 0.00 | 62 | 1020.0 |
| 20260903192306 | 79 | 329 | 0.9 | 2.6 | 0.00 | 0.00 | 0.00 | 62 | 1019.3 |
| 20260903191813 | 80 | 300 | 0.9 | 1.7 | 0.00 | 0.00 | 0.00 | 62 | 1020.0 |
| 20260903191805 | 80 | 313 | 0.9 | 1.7 | 0.00 | 0.00 | 0.00 | 62 | 1019.3 |
| 20260903191543 | 61 | 34 | 0.0 | 1.7 | 0.00 | 0.00 | 0.00 | 80 | 1020.7 |
| 20260903191539 | 81 | 283 | 0.9 | 1.7 | 0.00 | 0.00 | 0.00 | 61 | 1019.8 |
| 20260903191304 | 81 | 343 | 0.9 | 1.7 | 0.00 | 0.00 | 0.00 | 60 | 1019.2 |
| 20260903190815 | 81 | 269 | 0.9 | 1.7 | 0.00 | 0.00 | 0.00 | 60 | 1019.8 |
| 20260903190804 | 81 | 332 | 0.9 | 1.7 | 0.00 | 0.00 | 0.00 | 60 | 1019.2 |
| 20260903190316 | 82 | 223 | 0.0 | 0.9 | 0.00 | 0.00 | 0.00 | 59 | 1019.8 |
| 20260903190304 | 82 | 236 | 0.0 | 0.9 | 0.00 | 0.00 | 0.00 | 60 | 1019.2 |
| 20260903190044 | 61 | 0 | 0.0 | 0.9 | 0.00 | 0.00 | 0.00 | 79 | 1020.6 |
| 20260903185813 | 82 | 1 | 0.0 | 0.9 | 0.00 | 0.00 | 0.00 | 59 | 1019.9 |
| 20260903185804 | 82 | 320 | 0.0 | 0.9 | 0.00 | 0.00 | 0.00 | 59 | 1019.2 |
| 20260903185316 | 82 | 223 | 0.0 | 0.9 | 0.00 | 0.00 | 0.00 | 60 | 1019.8 |
| 20260903185306 | 82 | 228 | 0.0 | 0.9 | 0.00 | 0.00 | 0.00 | 60 | 1019.3 |
| 20260903185255 | 83 | 269 | 0.0 | 1.7 | 0.00 | 0.00 | 0.00 | 59 | 1019.9 |
| 20260903184557 | 61 | 0 | 0.0 | 1.7 | 0.00 | 0.00 | 0.00 | 79 | 1020.6 |
| 20260903184317 | 83 | 45 | 0.0 | 1.7 | 0.00 | 0.00 | 0.00 | 59 | 1019.9 |
| 20260903184304 | 83 | 248 | 0.9 | 1.7 | 0.00 | 0.00 | 0.00 | 58 | 1019.3 |
| 20260903183813 | 83 | 269 | 0.0 | 1.7 | 0.00 | 0.00 | 0.00 | 58 | 1019.9 |
| 20260903183804 | 83 | 348 | 0.9 | 1.7 | 0.00 | 0.00 | 0.00 | 58 | 1019.3 |
| 20260903183315 | 84 | 286 | 0.9 | 1.7 | 0.00 | 0.00 | 0.00 | 58 | 1019.9 |
| 20260903183043 | 61 | 51 | 0.0 | 1.7 | 0.00 | 0.00 | 0.00 | 77 | 1020.6 |
| 20260903182812 | 85 | 314 | 0.9 | 1.7 | 0.00 | 0.00 | 0.00 | 57 | 1019.9 |
| 20260903182804 | 85 | 305 | 0.9 | 1.7 | 0.00 | 0.00 | 0.00 | 57 | 1019.3 |
| 20260903182319 | 85 | 269 | 0.9 | 1.7 | 0.00 | 0.00 | 0.00 | 56 | 1019.8 |
| 20260903182306 | 85 | 315 | 0.9 | 1.7 | 0.00 | 0.00 | 0.00 | 56 | 1019.2 |
| 20260903181813 | 86 | 45 | 0.0 | 1.7 | 0.00 | 0.00 | 0.00 | 55 | 1019.8 |
| 20260903181804 | 86 | 294 | 0.0 | 1.7 | 0.00 | 0.00 | 0.00 | 55 | 1019.2 |
| 20260903181549 | 61 | 9 | 0.9 | 1.7 | 0.00 | 0.00 | 0.00 | 74 | 1020.6 |
| 20260903181317 | 86 | 1 | 0.9 | 1.7 | 0.00 | 0.00 | 0.00 | 54 | 1019.9 |
| 20260903181304 | 86 | 319 | 0.9 | 1.7 | 0.00 | 0.00 | 0.00 | 55 | 1019.2 |
| 20260903180812 | 87 | 344 | 0.9 | 1.7 | 0.00 | 0.00 | 0.00 | 54 | 1019.9 |
| 20260903180804 | 87 | 305 | 0.9 | 1.7 | 0.00 | 0.00 | 0.00 | 54 | 1019.3 |
| 20260903180549 | 87 | 296 | 0.9 | 1.7 | 0.00 | 0.00 | 0.00 | 54 | 1019.8 |
| 20260903180327 | 87 | 296 | 0.9 | 1.7 | 0.00 | 0.00 | 0.00 | 54 | 1019.8 |
| 20260903180303 | 87 | 302 | 0.9 | 2.6 | 0.00 | 0.00 | 0.00 | 54 | 1019.3 |
| 20260903180049 | 61 | 292 | 0.9 | 1.7 | 0.00 | 0.00 | 0.00 | 73 | 1020.6 |
| 20260903175811 | 87 | 303 | 0.9 | 1.7 | 0.00 | 0.00 | 0.00 | 53 | 1019.8 |
| 20260903175803 | 87 | 232 | 0.9 | 1.7 | 0.00 | 0.00 | 0.00 | 53 | 1019.3 |
| 20260903175315 | 87 | 178 | 0.0 | 3.5 | 0.00 | 0.00 | 0.00 | 53 | 1019.8 |
| 20260903175306 | 88 | 210 | 0.9 | 2.6 | 0.00 | 0.00 | 0.00 | 53 | 1019.2 |
| 20260903175036 | 88 | 327 | 1.7 | 3.5 | 0.00 | 0.00 | 0.00 | 51 | 1019.8 |
| 20260903174804 | 88 | 275 | 1.7 | 2.6 | 0.00 | 0.00 | 0.00 | 51 | 1019.2 |
| 20260903174609 | 61 | 317 | 0.9 | 2.6 | 0.00 | 0.00 | 0.00 | 71 | 1020.6 |
| 20260903174317 | 88 | 45 | 0.9 | 3.5 | 0.00 | 0.00 | 0.00 | 51 | 1019.8 |
| 20260903174303 | 88 | 300 | 0.9 | 2.6 | 0.00 | 0.00 | 0.00 | 51 | 1019.2 |
| 20260903174041 | 88 | 341 | 1.7 | 3.5 | 0.00 | 0.00 | 0.00 | 50 | 1019.8 |
| 20260903173804 | 88 | 312 | 0.9 | 2.6 | 0.00 | 0.00 | 0.00 | 50 | 1019.2 |
| 20260903173317 | 88 | 306 | 0.9 | 2.6 | 0.00 | 0.00 | 0.00 | 50 | 1019.9 |
| 20260903173304 | 88 | 275 | 0.9 | 2.6 | 0.00 | 0.00 | 0.00 | 50 | 1019.3 |
| 20260903173052 | 61 | 309 | 0.9 | 2.6 | 0.00 | 0.00 | 0.00 | 69 | 1020.5 |
| 20260903172810 | 89 | 327 | 1.7 | 2.6 | 0.00 | 0.00 | 0.00 | 50 | 1019.8 |
| 20260903172804 | 89 | 331 | 1.7 | 2.6 | 0.00 | 0.00 | 0.00 | 50 | 1019.2 |
| 20260903172313 | 89 | 324 | 1.7 | 3.5 | 0.00 | 0.00 | 0.00 | 50 | 1019.8 |
| 20260903172306 | 89 | 310 | 0.9 | 2.6 | 0.00 | 0.00 | 0.00 | 50 | 1019.3 |
| 20260903171810 | 89 | 324 | 1.7 | 3.5 | 0.00 | 0.00 | 0.00 | 48 | 1019.9 |
| 20260903171804 | 89 | 324 | 1.7 | 2.6 | 0.00 | 0.00 | 0.00 | 48 | 1019.2 |
| 20260903171548 | 61 | 282 | 0.9 | 2.6 | 0.00 | 0.00 | 0.00 | 67 | 1020.6 |
| 20260903171313 | 90 | 331 | 1.7 | 2.6 | 0.00 | 0.00 | 0.00 | 48 | 1019.8 |
| 20260903170811 | 90 | 319 | 0.9 | 2.6 | 0.00 | 0.00 | 0.00 | 46 | 1019.8 |
| 20260903170803 | 90 | 284 | 1.7 | 2.6 | 0.00 | 0.00 | 0.00 | 46 | 1019.3 |
| 20260903170315 | 90 | 314 | 0.0 | 2.6 | 0.00 | 0.00 | 0.00 | 46 | 1019.8 |
| 20260903170304 | 90 | 214 | 0.9 | 2.6 | 0.00 | 0.00 | 0.00 | 46 | 1019.2 |
| 20260903170105 | 61 | 321 | 0.9 | 1.7 | 0.00 | 0.00 | 0.00 | 65 | 1020.6 |
| 20260903165810 | 90 | 293 | 1.7 | 2.6 | 0.00 | 0.00 | 0.00 | 46 | 1019.8 |
| 20260903165803 | 90 | 336 | 0.9 | 2.6 | 0.00 | 0.00 | 0.00 | 47 | 1019.2 |
| 20260903165314 | 90 | 269 | 0.9 | 2.6 | 0.00 | 0.00 | 0.00 | 47 | 1019.8 |
| 20260903165305 | 90 | 327 | 0.9 | 2.6 | 0.00 | 0.00 | 0.00 | 46 | 1019.2 |
| 20260903164810 | 90 | 290 | 0.9 | 2.6 | 0.00 | 0.00 | 0.00 | 48 | 1019.7 |
| 20260903164804 | 90 | 219 | 0.9 | 2.6 | 0.00 | 0.00 | 0.00 | 48 | 1019.2 |
| 20260903164554 | 61 | 265 | 0.9 | 1.7 | 0.00 | 0.00 | 0.00 | 47 | 1020.5 |
| 20260903164313 | 90 | 223 | 0.9 | 2.6 | 0.00 | 0.00 | 0.00 | 49 | 1019.8 |
| 20260903164303 | 90 | 274 | 0.9 | 1.7 | 0.00 | 0.00 | 0.00 | 49 | 1019.1 |
| 20260903163810 | 90 | 269 | 0.9 | 3.5 | 0.00 | 0.00 | 0.00 | 50 | 1019.7 |
| 20260903163804 | 90 | 273 | 0.9 | 2.6 | 0.00 | 0.00 | 0.00 | 50 | 1019.2 |
| 20260903163313 | 90 | 321 | 1.7 | 3.5 | 0.00 | 0.00 | 0.00 | 49 | 1019.8 |
| 20260903163050 | 61 | 346 | 0.0 | 1.7 | 0.00 | 0.00 | 0.00 | 68 | 1020.5 |
| 20260903162810 | 90 | 269 | 0.9 | 2.6 | 0.00 | 0.00 | 0.00 | 49 | 1019.9 |
| 20260903162804 | 90 | 269 | 0.9 | 2.6 | 0.00 | 0.00 | 0.00 | 49 | 1019.2 |
| 20260903162311 | 90 | 223 | 0.9 | 3.5 | 0.00 | 0.00 | 0.00 | 49 | 1019.7 |
| 20260903162306 | 90 | 246 | 0.9 | 2.6 | 0.00 | 0.00 | 0.00 | 49 | 1019.3 |
| 20260903162027 | 89 | 45 | 0.9 | 3.5 | 0.00 | 0.00 | 0.00 | 49 | 1019.8 |
| 20260903161803 | 89 | 268 | 0.9 | 2.6 | 0.00 | 0.00 | 0.00 | 49 | 1019.4 |
| 20260903161547 | 61 | 314 | 1.7 | 3.5 | 0.00 | 0.00 | 0.00 | 47 | 1020.7 |
| 20260903161317 | 89 | 353 | 1.7 | 3.5 | 0.00 | 0.00 | 0.00 | 50 | 1019.9 |
| 20260903161303 | 89 | 346 | 0.9 | 2.6 | 0.00 | 0.00 | 0.00 | 48 | 1019.4 |
| 20260903161255 | 89 | 223 | 1.7 | 3.5 | 0.00 | 0.00 | 0.00 | 49 | 1020.0 |
| 20260903160803 | 89 | 292 | 1.7 | 2.6 | 0.00 | 0.00 | 0.00 | 49 | 1019.4 |
| 20260903160314 | 89 | 331 | 2.6 | 3.5 | 0.00 | 0.00 | 0.00 | 52 | 1019.9 |
| 20260903160303 | 89 | 325 | 1.7 | 2.6 | 0.00 | 0.00 | 0.00 | 50 | 1019.4 |
| 20260903160047 | 61 | 0 | 0.9 | 2.6 | 0.00 | 0.00 | 0.00 | 51 | 1020.7 |
| 20260903155811 | 89 | 321 | 1.7 | 3.5 | 0.00 | 0.00 | 0.00 | 51 | 1019.9 |
| 20260903155803 | 89 | 324 | 1.7 | 5.2 | 0.00 | 0.00 | 0.00 | 51 | 1019.4 |
| 20260903155311 | 89 | 314 | 1.7 | 3.5 | 0.00 | 0.00 | 0.00 | 52 | 1020.0 |
| 20260903155306 | 89 | 269 | 0.9 | 4.3 | 0.00 | 0.00 | 0.00 | 52 | 1019.4 |
| 20260903154808 | 89 | 314 | 1.7 | 3.5 | 0.00 | 0.00 | 0.00 | 52 | 1020.0 |
| 20260903154556 | 61 | 93 | 0.9 | 2.6 | 0.00 | 0.00 | 0.00 | 72 | 1020.7 |
| 20260903154548 | 89 | 351 | 1.7 | 4.3 | 0.00 | 0.00 | 0.00 | 54 | 1020.0 |
| 20260903154304 | 89 | 320 | 1.7 | 2.6 | 0.00 | 0.00 | 0.00 | 53 | 1019.5 |
| 20260903154030 | 89 | 234 | 1.7 | 4.3 | 0.00 | 0.00 | 0.00 | 54 | 1020.0 |
| 20260903153535 | 89 | 314 | 1.7 | 4.3 | 0.00 | 0.00 | 0.00 | 54 | 1020.0 |
| 20260903153303 | 89 | 274 | 2.6 | 5.2 | 0.00 | 0.00 | 0.00 | 54 | 1019.5 |
| 20260903153046 | 61 | 212 | 2.6 | 3.5 | 0.00 | 0.00 | 0.00 | 100 | 1020.9 |
| 20260903152809 | 89 | 89 | 1.7 | 3.5 | 0.00 | 0.00 | 0.00 | 54 | 1020.1 |
| 20260903152804 | 89 | 264 | 1.7 | 2.6 | 0.00 | 0.00 | 0.00 | 54 | 1019.5 |
| 20260903152312 | 89 | 324 | 1.7 | 2.6 | 0.00 | 0.00 | 0.00 | 54 | 1020.1 |
| 20260903152306 | 89 | 314 | 1.7 | 2.6 | 0.00 | 0.00 | 0.00 | 55 | 1019.5 |
| 20260903151809 | 89 | 279 | 1.7 | 4.3 | 0.00 | 0.00 | 0.00 | 55 | 1020.2 |
| 20260903151754 | 89 | 337 | 1.7 | 4.3 | 0.00 | 0.00 | 0.00 | 55 | 1020.2 |
| 20260903151551 | 61 | 221 | 0.9 | 2.6 | 0.00 | 0.00 | 0.00 | 100 | 1021.0 |
| 20260903151303 | 89 | 305 | 1.7 | 5.2 | 0.00 | 0.00 | 0.00 | 55 | 1019.7 |
| 20260903150808 | 89 | 331 | 1.7 | 3.5 | 0.00 | 0.00 | 0.00 | 55 | 1020.3 |
| 20260903150804 | 89 | 298 | 1.7 | 2.6 | 0.00 | 0.00 | 0.00 | 55 | 1019.7 |
| 20260903150312 | 89 | 303 | 1.7 | 4.3 | 0.00 | 0.00 | 0.00 | 55 | 1020.4 |
| 20260903150304 | 88 | 301 | 1.7 | 2.6 | 0.00 | 0.00 | 0.00 | 56 | 1019.8 |
| 20260903150044 | 61 | 51 | 1.7 | 3.5 | 0.00 | 0.00 | 0.00 | 100 | 1021.3 |
| 20260903145808 | 88 | 254 | 2.6 | 4.3 | 0.00 | 0.00 | 0.00 | 55 | 1020.4 |
| 20260903145804 | 89 | 321 | 2.6 | 5.2 | 0.00 | 0.00 | 0.00 | 55 | 1019.9 |
| 20260903145313 | 89 | 330 | 2.6 | 4.3 | 0.00 | 0.00 | 0.00 | 56 | 1020.5 |
| 20260903145306 | 89 | 319 | 1.7 | 2.6 | 0.00 | 0.00 | 0.00 | 56 | 1019.9 |
| 20260903144808 | 89 | 241 | 1.7 | 4.3 | 0.00 | 0.00 | 0.00 | 55 | 1020.5 |
| 20260903144804 | 89 | 267 | 1.7 | 4.3 | 0.00 | 0.00 | 0.00 | 55 | 1019.9 |
| 20260903144547 | 61 | 344 | 0.9 | 2.6 | 0.00 | 0.00 | 0.00 | 100 | 1021.3 |
| 20260903144311 | 88 | 1 | 1.7 | 4.3 | 0.00 | 0.00 | 0.00 | 57 | 1020.5 |
| 20260903144304 | 88 | 261 | 1.7 | 4.3 | 0.00 | 0.00 | 0.00 | 57 | 1020.0 |
| 20260903143808 | 88 | 314 | 1.7 | 4.3 | 0.00 | 0.00 | 0.00 | 56 | 1020.6 |
| 20260903143804 | 88 | 309 | 1.7 | 4.3 | 0.00 | 0.00 | 0.00 | 57 | 1020.0 |
| 20260903143311 | 88 | 16 | 1.7 | 3.5 | 0.00 | 0.00 | 0.00 | 55 | 1020.6 |
| 20260903143304 | 88 | 330 | 1.7 | 4.3 | 0.00 | 0.00 | 0.00 | 55 | 1020.1 |
| 20260903143048 | 61 | 295 | 0.9 | 3.5 | 0.00 | 0.00 | 0.00 | 100 | 1021.4 |
| 20260903142808 | 88 | 316 | 1.7 | 3.5 | 0.00 | 0.00 | 0.00 | 56 | 1020.6 |
| 20260903142803 | 88 | 286 | 1.7 | 4.3 | 0.00 | 0.00 | 0.00 | 56 | 1020.1 |
| 20260903142310 | 88 | 283 | 1.7 | 4.3 | 0.00 | 0.00 | 0.00 | 56 | 1020.6 |
| 20260903142306 | 88 | 308 | 1.7 | 2.6 | 0.00 | 0.00 | 0.00 | 56 | 1020.0 |
| 20260903141807 | 88 | 296 | 2.6 | 4.3 | 0.00 | 0.00 | 0.00 | 55 | 1020.7 |
| 20260903141804 | 88 | 310 | 2.6 | 4.3 | 0.00 | 0.00 | 0.00 | 55 | 1020.1 |
| 20260903141543 | 61 | 316 | 1.7 | 3.5 | 0.00 | 0.00 | 0.00 | 100 | 1021.5 |
| 20260903141530 | 88 | 314 | 1.7 | 3.5 | 0.00 | 0.00 | 0.00 | 56 | 1020.7 |
| 20260903141248 | 87 | 269 | 1.7 | 3.5 | 0.00 | 0.00 | 0.00 | 57 | 1020.7 |
| 20260903140804 | 87 | 286 | 1.7 | 2.6 | 0.00 | 0.00 | 0.00 | 57 | 1020.1 |
| 20260903140310 | 87 | 300 | 1.7 | 3.5 | 0.00 | 0.00 | 0.00 | 57 | 1020.7 |
| 20260903140304 | 87 | 319 | 1.7 | 4.3 | 0.00 | 0.00 | 0.00 | 56 | 1020.1 |
| 20260903140044 | 61 | 311 | 1.7 | 3.5 | 0.00 | 0.00 | 0.00 | 100 | 1021.5 |
| 20260903135806 | 87 | 306 | 0.9 | 3.5 | 0.00 | 0.00 | 0.00 | 57 | 1020.7 |
| 20260903135540 | 87 | 300 | 1.7 | 3.5 | 0.00 | 0.00 | 0.00 | 57 | 1020.8 |
| 20260903135306 | 87 | 306 | 1.7 | 2.6 | 0.00 | 0.00 | 0.00 | 57 | 1020.1 |
| 20260903134805 | 87 | 1 | 1.7 | 4.3 | 0.00 | 0.00 | 0.00 | 56 | 1020.8 |
| 20260903134803 | 87 | 291 | 1.7 | 2.6 | 0.00 | 0.00 | 0.00 | 56 | 1020.1 |
| 20260903134542 | 61 | 329 | 0.9 | 2.6 | 0.00 | 0.00 | 0.00 | 100 | 1021.5 |
| 20260903134310 | 87 | 135 | 0.9 | 4.3 | 0.00 | 0.00 | 0.00 | 58 | 1020.8 |
| 20260903134304 | 87 | 293 | 1.7 | 4.3 | 0.00 | 0.00 | 0.00 | 58 | 1020.1 |
| 20260903133805 | 87 | 331 | 1.7 | 4.3 | 0.00 | 0.00 | 0.00 | 57 | 1020.8 |
| 20260903133308 | 87 | 319 | 1.7 | 4.3 | 0.00 | 0.00 | 0.00 | 57 | 1020.8 |
| 20260903133304 | 87 | 289 | 2.6 | 5.2 | 0.00 | 0.00 | 0.00 | 57 | 1020.2 |
| 20260903133052 | 61 | 239 | 0.9 | 3.5 | 0.00 | 0.00 | 0.00 | 100 | 1021.6 |
| 20260903132806 | 87 | 299 | 1.7 | 2.6 | 0.00 | 0.00 | 0.00 | 58 | 1020.9 |
| 20260903132804 | 87 | 304 | 0.9 | 2.6 | 0.00 | 0.00 | 0.00 | 58 | 1020.3 |
| 20260903132309 | 87 | 303 | 1.7 | 3.5 | 0.00 | 0.00 | 0.00 | 58 | 1020.8 |
| 20260903131805 | 86 | 234 | 0.9 | 3.5 | 0.00 | 0.00 | 0.00 | 59 | 1020.9 |
| 20260903131553 | 61 | 287 | 0.9 | 2.6 | 0.00 | 0.00 | 0.00 | 100 | 1021.6 |
| 20260903131308 | 86 | 231 | 1.7 | 3.5 | 0.00 | 0.00 | 0.00 | 57 | 1020.9 |
| 20260903131304 | 86 | 259 | 0.9 | 2.6 | 0.00 | 0.00 | 0.00 | 59 | 1020.3 |
| 20260903131022 | 86 | 314 | 1.7 | 2.6 | 0.00 | 0.00 | 0.00 | 59 | 1020.9 |
| 20260903130804 | 86 | 318 | 1.7 | 2.6 | 0.00 | 0.00 | 0.00 | 59 | 1020.3 |
| 20260903130528 | 86 | 306 | 1.7 | 2.6 | 0.00 | 0.00 | 0.00 | 60 | 1020.8 |
| 20260903130044 | 61 | 291 | 0.9 | 1.7 | 0.00 | 0.00 | 0.00 | 100 | 1021.6 |
| 20260903125805 | 85 | 223 | 1.7 | 2.6 | 0.00 | 0.00 | 0.00 | 60 | 1020.9 |
| 20260903125803 | 85 | 247 | 1.7 | 2.6 | 0.00 | 0.00 | 0.00 | 59 | 1020.3 |
| 20260903125308 | 85 | 45 | 1.7 | 4.3 | 0.00 | 0.00 | 0.00 | 59 | 1021.0 |
| 20260903125305 | 85 | 327 | 1.7 | 2.6 | 0.00 | 0.00 | 0.00 | 58 | 1020.3 |
| 20260903124805 | 85 | 1 | 1.7 | 4.3 | 0.00 | 0.00 | 0.00 | 58 | 1021.0 |
| 20260903124546 | 61 | 235 | 1.7 | 2.6 | 0.00 | 0.00 | 0.00 | 100 | 1021.8 |
| 20260903124309 | 85 | 290 | 1.7 | 3.5 | 0.00 | 0.00 | 0.00 | 58 | 1021.1 |
| 20260903124304 | 85 | 268 | 0.9 | 2.6 | 0.00 | 0.00 | 0.00 | 59 | 1020.4 |
| 20260903123804 | 84 | 267 | 0.9 | 2.6 | 0.00 | 0.00 | 0.00 | 58 | 1020.5 |
| 20260903123308 | 84 | 269 | 1.7 | 2.6 | 0.00 | 0.00 | 0.00 | 62 | 1021.0 |
| 20260903123303 | 84 | 285 | 0.9 | 2.6 | 0.00 | 0.00 | 0.00 | 62 | 1020.5 |
| 20260903123044 | 61 | 338 | 0.9 | 2.6 | 0.00 | 0.00 | 0.00 | 100 | 1021.8 |
| 20260903122804 | 83 | 291 | 0.9 | 2.6 | 0.00 | 0.00 | 0.00 | 61 | 1020.5 |
| 20260903122306 | 83 | 28 | 0.9 | 2.6 | 0.00 | 0.00 | 0.00 | 63 | 1021.1 |
| 20260903121804 | 82 | 321 | 1.7 | 2.6 | 0.00 | 0.00 | 0.00 | 64 | 1021.1 |
| 20260903121545 | 61 | 0 | 0.0 | 1.7 | 0.00 | 0.00 | 0.00 | 100 | 1021.8 |
| 20260903121307 | 81 | 178 | 0.9 | 2.6 | 0.00 | 0.00 | 0.00 | 62 | 1021.1 |
| 20260903120805 | 81 | 269 | 0.9 | 3.5 | 0.00 | 0.00 | 0.00 | 62 | 1021.3 |
| 20260903120306 | 81 | 223 | 0.9 | 3.5 | 0.00 | 0.00 | 0.00 | 64 | 1021.3 |
| 20260903120304 | 81 | 244 | 0.9 | 2.6 | 0.00 | 0.00 | 0.00 | 64 | 1020.6 |
| 20260903120049 | 61 | 248 | 0.9 | 2.6 | 0.00 | 0.00 | 0.00 | 100 | 1021.9 |
| 20260903115804 | 80 | 295 | 0.9 | 2.6 | 0.00 | 0.00 | 0.00 | 66 | 1020.7 |
| 20260903115757 | 80 | 89 | 1.7 | 2.6 | 0.00 | 0.00 | 0.00 | 66 | 1021.3 |
| 20260903115305 | 80 | 276 | 1.7 | 2.6 | 0.00 | 0.00 | 0.00 | 66 | 1020.7 |
| 20260903115025 | 80 | 45 | 0.9 | 2.6 | 0.00 | 0.00 | 0.00 | 68 | 1021.3 |
| 20260903114804 | 79 | 277 | 0.9 | 2.6 | 0.00 | 0.00 | 0.00 | 67 | 1020.7 |
| 20260903114548 | 61 | 338 | 0.9 | 2.6 | 0.00 | 0.00 | 0.00 | 100 | 1022.0 |
| 20260903114307 | 79 | 337 | 0.9 | 2.6 | 0.00 | 0.00 | 0.00 | 68 | 1021.5 |
| 20260903114304 | 79 | 245 | 0.9 | 2.6 | 0.00 | 0.00 | 0.00 | 68 | 1020.7 |
| 20260903113803 | 78 | 337 | 0.9 | 2.6 | 0.00 | 0.00 | 0.00 | 69 | 1020.8 |
| 20260903113801 | 78 | 310 | 1.7 | 2.6 | 0.00 | 0.00 | 0.00 | 69 | 1021.4 |
| 20260903113330 | 78 | 223 | 0.9 | 3.5 | 0.00 | 0.00 | 0.00 | 68 | 1021.4 |
| 20260903113303 | 78 | 273 | 0.9 | 1.7 | 0.00 | 0.00 | 0.00 | 67 | 1020.8 |
| 20260903113044 | 61 | 319 | 0.0 | 2.6 | 0.00 | 0.00 | 0.00 | 100 | 1022.0 |
| 20260903112804 | 78 | 234 | 1.7 | 2.6 | 0.00 | 0.00 | 0.00 | 69 | 1020.8 |
| 20260903112802 | 78 | 306 | 0.9 | 3.5 | 0.00 | 0.00 | 0.00 | 69 | 1021.5 |
| 20260903112305 | 78 | 261 | 0.9 | 1.7 | 0.00 | 0.00 | 0.00 | 71 | 1020.9 |
| 20260903111804 | 78 | 205 | 0.9 | 2.6 | 0.00 | 0.00 | 0.00 | 72 | 1020.9 |
| 20260903111802 | 78 | 197 | 0.9 | 2.6 | 0.00 | 0.00 | 0.00 | 72 | 1021.6 |
| 20260903111620 | 61 | 313 | 0.9 | 2.6 | 0.00 | 0.00 | 0.00 | 100 | 1022.2 |
| 20260903111310 | 77 | 89 | 0.9 | 1.7 | 0.00 | 0.00 | 0.00 | 74 | 1021.6 |
| 20260903111305 | 77 | 195 | 0.9 | 1.7 | 0.00 | 0.00 | 0.00 | 74 | 1020.9 |
| 20260903110803 | 76 | 145 | 0.9 | 1.7 | 0.00 | 0.00 | 0.00 | 75 | 1021.7 |
| 20260903110530 | 75 | 28 | 0.9 | 1.7 | 0.00 | 0.00 | 0.00 | 75 | 1021.6 |
| 20260903110303 | 75 | 66 | 0.9 | 1.7 | 0.00 | 0.00 | 0.00 | 75 | 1021.1 |
| 20260903110051 | 61 | 153 | 0.9 | 1.7 | 0.00 | 0.00 | 0.00 | 100 | 1022.2 |
| 20260903105804 | 74 | 196 | 0.9 | 1.7 | 0.00 | 0.00 | 0.00 | 76 | 1021.0 |
| 20260903105306 | 74 | 236 | 0.9 | 1.7 | 0.00 | 0.00 | 0.00 | 78 | 1021.0 |
| 20260903104806 | 73 | 329 | 0.9 | 2.6 | 0.00 | 0.00 | 0.00 | 80 | 1021.0 |
| 20260903104801 | 73 | 1 | 0.9 | 2.6 | 0.00 | 0.00 | 0.00 | 80 | 1021.7 |
| 20260903104555 | 61 | 0 | 0.9 | 1.7 | 0.00 | 0.00 | 0.00 | 100 | 1022.3 |
| 20260903104305 | 72 | 59 | 0.9 | 2.6 | 0.00 | 0.00 | 0.00 | 81 | 1021.7 |
| 20260903103805 | 72 | 13 | 0.9 | 1.7 | 0.00 | 0.00 | 0.00 | 81 | 1021.1 |
| 20260903103802 | 72 | 320 | 0.0 | 1.7 | 0.00 | 0.00 | 0.00 | 81 | 1021.7 |
| 20260903103525 | 71 | 286 | 0.9 | 1.7 | 0.00 | 0.00 | 0.00 | 83 | 1021.8 |
| 20260903103303 | 71 | 250 | 0.9 | 2.6 | 0.00 | 0.00 | 0.00 | 83 | 1021.2 |
| 20260903103044 | 61 | 9 | 0.9 | 1.7 | 0.00 | 0.00 | 0.00 | 100 | 1022.5 |
| 20260903102803 | 70 | 339 | 0.9 | 1.7 | 0.00 | 0.00 | 0.00 | 84 | 1021.2 |
| 20260903102306 | 70 | 28 | 0.9 | 1.7 | 0.00 | 0.00 | 0.00 | 87 | 1022.0 |
| 20260903101804 | 69 | 228 | 0.9 | 1.7 | 0.00 | 0.00 | 0.00 | 85 | 1021.3 |
| 20260903101801 | 69 | 306 | 0.9 | 1.7 | 0.00 | 0.00 | 0.00 | 85 | 1022.0 |
| 20260903101546 | 61 | 137 | 0.9 | 1.7 | 0.00 | 0.00 | 0.00 | 100 | 1022.7 |
| 20260903101306 | 69 | 51 | 0.9 | 1.7 | 0.00 | 0.00 | 0.00 | 88 | 1022.0 |
| 20260903101304 | 68 | 166 | 0.9 | 1.7 | 0.00 | 0.00 | 0.00 | 88 | 1021.4 |
| 20260903100803 | 68 | 316 | 0.9 | 1.7 | 0.00 | 0.00 | 0.00 | 92 | 1021.4 |
| 20260903100801 | 68 | 89 | 0.9 | 1.7 | 0.00 | 0.00 | 0.00 | 92 | 1022.0 |
| 20260903100304 | 67 | 178 | 0.9 | 1.7 | 0.00 | 0.00 | 0.00 | 93 | 1022.1 |
| 20260903100049 | 61 | 178 | 0.0 | 1.7 | 0.00 | 0.00 | 0.00 | 100 | 1022.8 |
| 20260903100030 | 66 | 223 | 0.9 | 1.7 | 0.00 | 0.00 | 0.00 | 94 | 1022.1 |
| 20260903095804 | 66 | 206 | 0.9 | 1.7 | 0.00 | 0.00 | 0.00 | 94 | 1021.5 |
| 20260903095306 | 66 | 45 | 0.0 | 1.7 | 0.00 | 0.00 | 0.00 | 94 | 1022.0 |
| 20260903094804 | 65 | 155 | 0.9 | 1.7 | 0.00 | 0.00 | 0.00 | 95 | 1021.5 |
| 20260903094800 | 65 | 152 | 0.9 | 1.7 | 0.00 | 0.00 | 0.00 | 95 | 1022.1 |
| 20260903094547 | 61 | 0 | 0.9 | 1.7 | 0.00 | 0.00 | 0.00 | 100 | 1022.8 |
| 20260903094535 | 65 | 20 | 0.9 | 1.7 | 0.00 | 0.00 | 0.00 | 95 | 1022.0 |
| 20260903094303 | 65 | 26 | 0.0 | 1.7 | 0.00 | 0.00 | 0.00 | 95 | 1021.5 |
| 20260903093804 | 65 | 214 | 0.9 | 1.7 | 0.00 | 0.00 | 0.00 | 96 | 1021.5 |
| 20260903093800 | 65 | 206 | 0.9 | 1.7 | 0.00 | 0.00 | 0.00 | 96 | 1022.0 |
| 20260903093304 | 65 | 45 | 0.0 | 0.9 | 0.00 | 0.00 | 0.00 | 96 | 1022.0 |
| 20260903093047 | 61 | 178 | 0.9 | 0.9 | 0.00 | 0.00 | 0.00 | 100 | 1022.7 |
| 20260903092805 | 64 | 154 | 0.9 | 1.7 | 0.00 | 0.00 | 0.00 | 96 | 1021.6 |
| 20260903092800 | 64 | 223 | 0.9 | 0.9 | 0.00 | 0.00 | 0.00 | 96 | 1022.0 |
| 20260903092527 | 64 | 1 | 0.0 | 1.7 | 0.00 | 0.00 | 0.00 | 96 | 1022.1 |
| 20260903092306 | 64 | 168 | 0.0 | 0.9 | 0.00 | 0.00 | 0.00 | 96 | 1021.6 |
| 20260903091808 | 63 | 228 | 0.9 | 1.7 | 0.00 | 0.00 | 0.00 | 96 | 1021.6 |
| 20260903091800 | 63 | 178 | 0.9 | 1.7 | 0.00 | 0.00 | 0.00 | 96 | 1022.2 |
| 20260903091543 | 61 | 9 | 0.9 | 1.7 | 0.00 | 0.00 | 0.00 | 100 | 1022.9 |
| 20260903091535 | 63 | 269 | 0.9 | 1.7 | 0.00 | 0.00 | 0.00 | 96 | 1022.1 |
| 20260903091304 | 63 | 245 | 0.9 | 1.7 | 0.00 | 0.00 | 0.00 | 96 | 1021.6 |
| 20260903090803 | 63 | 37 | 0.9 | 1.7 | 0.00 | 0.00 | 0.00 | 96 | 1021.7 |
| 20260903090759 | 63 | 1 | 0.9 | 1.7 | 0.00 | 0.00 | 0.00 | 96 | 1022.2 |
| 20260903090304 | 62 | 2 | 0.9 | 2.6 | 0.00 | 0.00 | 0.00 | 96 | 1021.7 |
| 20260903090050 | 61 | 0 | 0.0 | 1.7 | 0.00 | 0.00 | 0.00 | 100 | 1022.8 |
| 20260903090020 | 62 | 35 | 0.9 | 1.7 | 0.00 | 0.00 | 0.00 | 96 | 1022.1 |
| 20260903085803 | 62 | 25 | 0.9 | 1.7 | 0.00 | 0.00 | 0.00 | 96 | 1021.6 |
| 20260903085314 | 62 | 197 | 0.9 | 1.7 | 0.00 | 0.00 | 0.00 | 96 | 1022.2 |
| 20260903085306 | 62 | 70 | 0.9 | 1.7 | 0.00 | 0.00 | 0.00 | 96 | 1021.7 |
| 20260903084804 | 61 | 34 | 0.9 | 1.7 | 0.00 | 0.00 | 0.00 | 96 | 1021.5 |
| 20260903084801 | 61 | 1 | 0.9 | 1.7 | 0.00 | 0.00 | 0.00 | 96 | 1022.0 |
| 20260903084543 | 61 | 19 | 0.9 | 1.7 | 0.00 | 0.00 | 0.00 | 100 | 1022.7 |
| 20260903084303 | 61 | 219 | 0.9 | 1.7 | 0.00 | 0.00 | 0.00 | 96 | 1021.4 |
| 20260903083804 | 61 | 318 | 0.9 | 1.7 | 0.00 | 0.00 | 0.00 | 96 | 1021.5 |
| 20260903083800 | 61 | 223 | 0.9 | 1.7 | 0.00 | 0.00 | 0.00 | 96 | 1022.1 |
| 20260903083304 | 61 | 269 | 0.9 | 1.7 | 0.00 | 0.00 | 0.00 | 96 | 1022.1 |
| 20260903083044 | 61 | 221 | 0.9 | 0.9 | 0.00 | 0.00 | 0.00 | 100 | 1022.8 |
| 20260903082804 | 61 | 235 | 0.9 | 1.7 | 0.00 | 0.00 | 0.00 | 96 | 1021.7 |
| 20260903082759 | 60 | 269 | 0.9 | 1.7 | 0.00 | 0.00 | 0.00 | 96 | 1022.1 |
| 20260903082306 | 60 | 206 | 0.9 | 1.7 | 0.00 | 0.00 | 0.00 | 96 | 1022.1 |
| 20260903081759 | 60 | 314 | 0.9 | 1.7 | 0.00 | 0.00 | 0.00 | 96 | 1022.2 |
| 20260903081550 | 61 | 19 | 0.0 | 0.9 | 0.00 | 0.00 | 0.00 | 100 | 1022.9 |
| 20260903081304 | 60 | 356 | 0.9 | 1.7 | 0.00 | 0.00 | 0.00 | 96 | 1021.7 |
| 20260903081302 | 60 | 1 | 0.9 | 1.7 | 0.00 | 0.00 | 0.00 | 96 | 1022.2 |
| 20260903080804 | 60 | 219 | 0.9 | 1.7 | 0.00 | 0.00 | 0.00 | 96 | 1021.6 |
| 20260903080759 | 60 | 190 | 0.9 | 1.7 | 0.00 | 0.00 | 0.00 | 96 | 1022.0 |
| 20260903080528 | 60 | 178 | 0.9 | 0.9 | 0.00 | 0.00 | 0.00 | 96 | 1022.1 |
| 20260903080304 | 60 | 205 | 0.9 | 1.7 | 0.00 | 0.00 | 0.00 | 96 | 1021.6 |
| 20260903080045 | 61 | 0 | 0.9 | 1.7 | 0.00 | 0.00 | 0.00 | 100 | 1022.9 |
| 20260903075758 | 59 | 89 | 0.0 | 0.9 | 0.00 | 0.00 | 0.00 | 96 | 1022.1 |
| 20260903075306 | 59 | 336 | 0.0 | 0.9 | 0.00 | 0.00 | 0.00 | 96 | 1021.7 |
| 20260903075302 | 59 | 223 | 0.9 | 0.9 | 0.00 | 0.00 | 0.00 | 96 | 1022.1 |
| 20260903074804 | 59 | 204 | 0.0 | 0.9 | 0.00 | 0.00 | 0.00 | 96 | 1021.6 |
| 20260903074758 | 59 | 206 | 0.9 | 0.9 | 0.00 | 0.00 | 0.00 | 96 | 1022.0 |
| 20260903074543 | 61 | 205 | 0.9 | 0.9 | 0.00 | 0.00 | 0.00 | 100 | 1022.8 |
| 20260903074529 | 59 | 223 | 0.9 | 0.9 | 0.00 | 0.00 | 0.00 | 96 | 1022.0 |
| 20260903074304 | 59 | 173 | 0.9 | 0.9 | 0.00 | 0.00 | 0.00 | 96 | 1021.6 |
| 20260903074022 | 59 | 124 | 0.9 | 0.9 | 0.00 | 0.00 | 0.00 | 96 | 1022.1 |
| 20260903073804 | 59 | 152 | 0.9 | 0.9 | 0.00 | 0.00 | 0.00 | 96 | 1021.5 |
| 20260903073304 | 58 | 185 | 0.9 | 1.7 | 0.00 | 0.00 | 0.00 | 96 | 1021.5 |
| 20260903073301 | 58 | 28 | 0.9 | 1.7 | 0.00 | 0.00 | 0.00 | 96 | 1021.9 |
| 20260903073047 | 61 | 0 | 0.0 | 0.9 | 0.00 | 0.00 | 0.00 | 100 | 1022.5 |
| 20260903072803 | 58 | 125 | 0.9 | 1.7 | 0.00 | 0.00 | 0.00 | 96 | 1021.5 |
| 20260903072758 | 58 | 135 | 0.9 | 1.7 | 0.00 | 0.00 | 0.00 | 96 | 1021.9 |
| 20260903072306 | 58 | 228 | 0.9 | 1.7 | 0.00 | 0.00 | 0.00 | 95 | 1021.4 |
| 20260903072300 | 58 | 206 | 0.9 | 1.7 | 0.00 | 0.00 | 0.00 | 95 | 1021.9 |
| 20260903072019 | 58 | 45 | 0.9 | 1.7 | 0.00 | 0.00 | 0.00 | 96 | 1021.8 |
| 20260903071803 | 58 | 162 | 0.9 | 1.7 | 0.00 | 0.00 | 0.00 | 96 | 1021.3 |
| 20260903071544 | 61 | 0 | 0.0 | 0.9 | 0.00 | 0.00 | 0.00 | 100 | 1022.3 |
| 20260903071303 | 58 | 177 | 0.0 | 0.9 | 0.00 | 0.00 | 0.00 | 96 | 1021.3 |
| 20260903070757 | 58 | 206 | 0.0 | 1.7 | 0.00 | 0.00 | 0.00 | 96 | 1021.7 |
| 20260903070523 | 58 | 223 | 0.0 | 1.7 | 0.00 | 0.00 | 0.00 | 95 | 1021.7 |
| 20260903070304 | 58 | 213 | 0.0 | 1.7 | 0.00 | 0.00 | 0.00 | 95 | 1021.2 |
| 20260903070051 | 61 | 232 | 0.0 | 0.9 | 0.00 | 0.00 | 0.00 | 100 | 1022.3 |
| 20260903070018 | 58 | 178 | 0.9 | 1.7 | 0.00 | 0.00 | 0.00 | 95 | 1021.6 |
| 20260903065803 | 58 | 157 | 0.0 | 1.7 | 0.00 | 0.00 | 0.00 | 95 | 1021.3 |
| 20260903065306 | 58 | 169 | 0.9 | 1.7 | 0.00 | 0.00 | 0.00 | 95 | 1021.3 |
| 20260903065017 | 58 | 206 | 0.0 | 1.7 | 0.00 | 0.00 | 0.00 | 95 | 1021.7 |
| 20260903064540 | 61 | 196 | 0.0 | 0.9 | 0.00 | 0.00 | 0.00 | 100 | 1022.2 |
| 20260903064304 | 58 | 207 | 0.9 | 1.7 | 0.00 | 0.00 | 0.00 | 95 | 1021.2 |
| 20260903064301 | 58 | 269 | 0.9 | 0.9 | 0.00 | 0.00 | 0.00 | 95 | 1021.6 |
| 20260903063804 | 58 | 36 | 0.0 | 1.7 | 0.00 | 0.00 | 0.00 | 95 | 1021.2 |
| 20260903063757 | 58 | 56 | 0.9 | 1.7 | 0.00 | 0.00 | 0.00 | 95 | 1021.6 |
| 20260903063304 | 58 | 174 | 0.9 | 1.7 | 0.00 | 0.00 | 0.00 | 95 | 1021.0 |
| 20260903063300 | 58 | 135 | 0.9 | 1.7 | 0.00 | 0.00 | 0.00 | 95 | 1021.4 |
| 20260903063042 | 61 | 0 | 0.9 | 0.9 | 0.00 | 0.00 | 0.00 | 100 | 1022.1 |
| 20260903062756 | 58 | 178 | 0.9 | 1.7 | 0.00 | 0.00 | 0.00 | 95 | 1021.5 |
| 20260903062541 | 58 | 171 | 0.9 | 1.7 | 0.00 | 0.00 | 0.00 | 95 | 1021.6 |
| 20260903062330 | 58 | 171 | 0.9 | 1.7 | 0.00 | 0.00 | 0.00 | 95 | 1021.6 |
| 20260903062306 | 58 | 182 | 0.0 | 0.9 | 0.00 | 0.00 | 0.00 | 95 | 1021.2 |
| 20260903062051 | 58 | 178 | 0.0 | 1.7 | 0.00 | 0.00 | 0.00 | 95 | 1021.6 |
| 20260903061809 | 58 | 178 | 0.0 | 1.7 | 0.00 | 0.00 | 0.00 | 95 | 1021.6 |
| 20260903061804 | 58 | 173 | 0.0 | 1.7 | 0.00 | 0.00 | 0.00 | 95 | 1021.2 |
| 20260903061557 | 61 | 153 | 0.9 | 0.9 | 0.00 | 0.00 | 0.00 | 100 | 1022.2 |
| 20260903061305 | 58 | 187 | 0.0 | 0.9 | 0.00 | 0.00 | 0.00 | 95 | 1021.2 |
| 20260903061301 | 58 | 197 | 0.0 | 0.9 | 0.00 | 0.00 | 0.00 | 95 | 1021.6 |
| 20260903060803 | 59 | 213 | 0.0 | 0.9 | 0.00 | 0.00 | 0.00 | 95 | 1021.3 |
| 20260903060756 | 59 | 331 | 0.0 | 0.9 | 0.00 | 0.00 | 0.00 | 95 | 1021.6 |
| 20260903060304 | 59 | 205 | 0.0 | 0.9 | 0.00 | 0.00 | 0.00 | 95 | 1021.3 |
| 20260903060258 | 59 | 45 | 0.0 | 0.9 | 0.00 | 0.00 | 0.00 | 95 | 1021.7 |
| 20260903060046 | 61 | 0 | 0.0 | 0.9 | 0.00 | 0.00 | 0.00 | 100 | 1022.3 |
| 20260903055755 | 59 | 223 | 0.0 | 0.9 | 0.00 | 0.00 | 0.00 | 95 | 1021.8 |
| 20260903055306 | 59 | 75 | 0.0 | 0.9 | 0.00 | 0.00 | 0.00 | 95 | 1021.3 |
| 20260903055259 | 59 | 135 | 0.0 | 0.9 | 0.00 | 0.00 | 0.00 | 95 | 1021.6 |
| 20260903054803 | 59 | 191 | 0.0 | 0.9 | 0.00 | 0.00 | 0.00 | 95 | 1021.2 |
| 20260903054756 | 59 | 269 | 0.0 | 0.9 | 0.00 | 0.00 | 0.00 | 95 | 1021.6 |
| 20260903054541 | 61 | 0 | 0.0 | 0.9 | 0.00 | 0.00 | 0.00 | 100 | 1022.1 |
| 20260903054303 | 59 | 175 | 0.0 | 0.9 | 0.00 | 0.00 | 0.00 | 95 | 1021.3 |
| 20260903054258 | 59 | 45 | 0.0 | 0.9 | 0.00 | 0.00 | 0.00 | 95 | 1021.6 |
| 20260903053755 | 59 | 45 | 0.0 | 1.7 | 0.00 | 0.00 | 0.00 | 95 | 1021.6 |
| 20260903053303 | 59 | 46 | 0.9 | 1.7 | 0.00 | 0.00 | 0.00 | 95 | 1021.0 |
| 20260903053258 | 59 | 35 | 0.9 | 1.7 | 0.00 | 0.00 | 0.00 | 95 | 1021.5 |
| 20260903053100 | 61 | 0 | 0.0 | 0.9 | 0.00 | 0.00 | 0.00 | 100 | 1022.0 |
| 20260903052804 | 59 | 34 | 0.0 | 0.9 | 0.00 | 0.00 | 0.00 | 95 | 1021.1 |
| 20260903052756 | 59 | 1 | 0.0 | 0.9 | 0.00 | 0.00 | 0.00 | 95 | 1021.4 |
| 20260903052527 | 59 | 45 | 0.0 | 0.9 | 0.00 | 0.00 | 0.00 | 95 | 1021.5 |
| 20260903052307 | 59 | 76 | 0.0 | 1.7 | 0.00 | 0.00 | 0.00 | 95 | 1020.9 |
| 20260903051804 | 59 | 62 | 0.0 | 0.9 | 0.00 | 0.00 | 0.00 | 95 | 1021.0 |
| 20260903051755 | 59 | 314 | 0.0 | 0.9 | 0.00 | 0.00 | 0.00 | 95 | 1021.4 |
| 20260903051548 | 61 | 0 | 0.0 | 0.9 | 0.00 | 0.00 | 0.00 | 100 | 1022.0 |
| 20260903051522 | 59 | 45 | 0.0 | 0.9 | 0.00 | 0.00 | 0.00 | 95 | 1021.4 |
| 20260903051020 | 60 | 45 | 0.0 | 1.7 | 0.00 | 0.00 | 0.00 | 95 | 1021.5 |
| 20260903050808 | 60 | 27 | 0.0 | 0.9 | 0.00 | 0.00 | 0.00 | 95 | 1021.1 |
| 20260903050304 | 60 | 189 | 0.9 | 1.7 | 0.00 | 0.00 | 0.00 | 95 | 1021.0 |
| 20260903050258 | 60 | 223 | 0.9 | 1.7 | 0.00 | 0.00 | 0.00 | 95 | 1021.4 |
| 20260903050050 | 61 | 0 | 0.0 | 1.7 | 0.00 | 0.00 | 0.00 | 100 | 1022.1 |
| 20260903045754 | 60 | 178 | 0.0 | 1.7 | 0.00 | 0.00 | 0.00 | 95 | 1021.5 |
| 20260903045306 | 60 | 174 | 0.9 | 1.7 | 0.00 | 0.00 | 0.00 | 95 | 1021.2 |
| 20260903045257 | 60 | 168 | 0.9 | 1.7 | 0.00 | 0.00 | 0.00 | 95 | 1021.6 |
| 20260903044754 | 60 | 152 | 0.9 | 1.7 | 0.00 | 0.00 | 0.00 | 95 | 1021.6 |
| 20260903044542 | 61 | 153 | 0.0 | 0.9 | 0.00 | 0.00 | 0.00 | 100 | 1022.3 |
| 20260903044256 | 60 | 269 | 0.0 | 1.7 | 0.00 | 0.00 | 0.00 | 95 | 1021.8 |
| 20260903043804 | 60 | 163 | 0.0 | 0.9 | 0.00 | 0.00 | 0.00 | 95 | 1021.5 |
| 20260903043754 | 60 | 206 | 0.0 | 0.9 | 0.00 | 0.00 | 0.00 | 95 | 1021.8 |
| 20260903043304 | 60 | 225 | 0.0 | 1.7 | 0.00 | 0.00 | 0.00 | 95 | 1021.4 |
| 20260903043256 | 60 | 45 | 0.0 | 0.9 | 0.00 | 0.00 | 0.00 | 95 | 1021.8 |
| 20260903043047 | 61 | 205 | 0.0 | 0.9 | 0.00 | 0.00 | 0.00 | 100 | 1022.4 |
| 20260903042804 | 60 | 189 | 0.0 | 0.9 | 0.00 | 0.00 | 0.00 | 95 | 1021.5 |
| 20260903042754 | 60 | 269 | 0.0 | 1.7 | 0.00 | 0.00 | 0.00 | 95 | 1021.8 |
| 20260903042306 | 60 | 153 | 0.9 | 1.7 | 0.00 | 0.00 | 0.00 | 95 | 1021.6 |
| 20260903042257 | 60 | 178 | 0.9 | 1.7 | 0.00 | 0.00 | 0.00 | 95 | 1022.0 |
| 20260903041804 | 60 | 80 | 0.9 | 1.7 | 0.00 | 0.00 | 0.00 | 95 | 1021.6 |
| 20260903041754 | 60 | 269 | 0.0 | 1.7 | 0.00 | 0.00 | 0.00 | 95 | 1022.0 |
| 20260903041545 | 61 | 205 | 0.0 | 0.9 | 0.00 | 0.00 | 0.00 | 100 | 1022.6 |
| 20260903041304 | 60 | 198 | 0.9 | 0.9 | 0.00 | 0.00 | 0.00 | 95 | 1021.6 |
| 20260903041254 | 60 | 223 | 0.9 | 0.9 | 0.00 | 0.00 | 0.00 | 95 | 1022.1 |
| 20260903040804 | 60 | 210 | 0.0 | 1.7 | 0.00 | 0.00 | 0.00 | 95 | 1021.6 |
| 20260903040802 | 60 | 269 | 0.0 | 0.9 | 0.00 | 0.00 | 0.00 | 95 | 1022.0 |
| 20260903040304 | 60 | 162 | 0.0 | 0.9 | 0.00 | 0.00 | 0.00 | 95 | 1021.7 |
| 20260903040255 | 60 | 178 | 0.9 | 0.9 | 0.00 | 0.00 | 0.00 | 95 | 1022.0 |
| 20260903040105 | 61 | 0 | 0.0 | 0.9 | 0.00 | 0.00 | 0.00 | 100 | 1022.7 |
| 20260903035804 | 60 | 175 | 0.0 | 0.9 | 0.00 | 0.00 | 0.00 | 95 | 1021.7 |
| 20260903035753 | 60 | 135 | 0.0 | 0.9 | 0.00 | 0.00 | 0.00 | 95 | 1022.1 |
| 20260903035306 | 60 | 62 | 0.0 | 0.9 | 0.00 | 0.00 | 0.00 | 95 | 1021.7 |
| 20260903035258 | 60 | 45 | 0.0 | 0.9 | 0.00 | 0.00 | 0.00 | 95 | 1022.1 |
| 20260903034804 | 60 | 156 | 0.0 | 0.9 | 0.00 | 0.00 | 0.00 | 95 | 1021.7 |
| 20260903034753 | 60 | 206 | 0.0 | 0.9 | 0.00 | 0.00 | 0.00 | 95 | 1022.2 |
| 20260903034547 | 61 | 137 | 0.0 | 0.9 | 0.00 | 0.00 | 0.00 | 100 | 1022.7 |
| 20260903034304 | 60 | 176 | 0.0 | 0.9 | 0.00 | 0.00 | 0.00 | 95 | 1021.7 |
| 20260903034256 | 60 | 206 | 0.0 | 0.9 | 0.00 | 0.00 | 0.00 | 95 | 1022.2 |
| 20260903034240 | 60 | 178 | 0.0 | 0.9 | 0.00 | 0.00 | 0.00 | 95 | 1022.2 |
| 20260903033803 | 60 | 158 | 0.0 | 0.9 | 0.00 | 0.00 | 0.00 | 95 | 1021.8 |
| 20260903033305 | 60 | 210 | 0.0 | 0.9 | 0.00 | 0.00 | 0.00 | 95 | 1021.8 |
| 20260903033256 | 60 | 135 | 0.0 | 0.9 | 0.00 | 0.00 | 0.00 | 95 | 1022.2 |
| 20260903033051 | 61 | 0 | 0.0 | 0.9 | 0.00 | 0.00 | 0.00 | 100 | 1022.9 |
| 20260903032804 | 60 | 221 | 0.0 | 0.9 | 0.00 | 0.00 | 0.00 | 95 | 1021.9 |
| 20260903032752 | 60 | 269 | 0.0 | 0.9 | 0.00 | 0.00 | 0.00 | 95 | 1022.3 |
| 20260903032306 | 60 | 41 | 0.9 | 0.9 | 0.00 | 0.00 | 0.00 | 95 | 1021.8 |
| 20260903032255 | 60 | 45 | 0.9 | 0.9 | 0.00 | 0.00 | 0.00 | 95 | 1022.3 |
| 20260903031803 | 60 | 325 | 0.0 | 0.9 | 0.00 | 0.00 | 0.00 | 95 | 1021.9 |
| 20260903031752 | 60 | 269 | 0.0 | 0.9 | 0.00 | 0.00 | 0.00 | 95 | 1022.3 |
| 20260903031549 | 61 | 0 | 0.0 | 0.9 | 0.00 | 0.00 | 0.00 | 100 | 1022.9 |
| 20260903031303 | 60 | 9 | 0.0 | 0.9 | 0.00 | 0.00 | 0.00 | 95 | 1021.8 |
| 20260903031256 | 60 | 63 | 0.0 | 0.9 | 0.00 | 0.00 | 0.00 | 95 | 1022.2 |
| 20260903030803 | 60 | 18 | 0.0 | 0.9 | 0.00 | 0.00 | 0.00 | 95 | 1021.8 |
| 20260903030751 | 60 | 89 | 0.0 | 1.7 | 0.00 | 0.00 | 0.00 | 95 | 1022.3 |
| 20260903030303 | 60 | 163 | 0.9 | 1.7 | 0.00 | 0.00 | 0.00 | 95 | 1021.9 |
| 20260903030255 | 60 | 178 | 0.9 | 1.7 | 0.00 | 0.00 | 0.00 | 95 | 1022.4 |
| 20260903030110 | 61 | 0 | 0.0 | 0.9 | 0.00 | 0.00 | 0.00 | 100 | 1023.0 |
| 20260903025804 | 60 | 169 | 0.0 | 0.9 | 0.00 | 0.00 | 0.00 | 94 | 1022.0 |
| 20260903025751 | 60 | 161 | 0.0 | 0.9 | 0.00 | 0.00 | 0.00 | 94 | 1022.3 |
| 20260903025306 | 60 | 165 | 0.9 | 0.9 | 0.00 | 0.00 | 0.00 | 94 | 1022.1 |
| 20260903025254 | 60 | 178 | 0.9 | 0.9 | 0.00 | 0.00 | 0.00 | 94 | 1022.4 |
| 20260903024804 | 60 | 170 | 0.0 | 0.9 | 0.00 | 0.00 | 0.00 | 94 | 1022.1 |
| 20260903024751 | 60 | 165 | 0.0 | 0.9 | 0.00 | 0.00 | 0.00 | 94 | 1022.5 |
| 20260903024546 | 61 | 0 | 0.0 | 0.9 | 0.00 | 0.00 | 0.00 | 100 | 1023.3 |
| 20260903024304 | 60 | 56 | 0.9 | 0.9 | 0.00 | 0.00 | 0.00 | 94 | 1022.2 |
| 20260903024253 | 60 | 45 | 0.9 | 1.7 | 0.00 | 0.00 | 0.00 | 94 | 1022.6 |
| 20260903023751 | 60 | 269 | 0.9 | 1.7 | 0.00 | 0.00 | 0.00 | 94 | 1022.6 |
| 20260903023304 | 61 | 40 | 0.0 | 0.9 | 0.00 | 0.00 | 0.00 | 94 | 1022.2 |
| 20260903023300 | 60 | 45 | 0.0 | 0.9 | 0.00 | 0.00 | 0.00 | 94 | 1022.6 |
| 20260903023044 | 61 | 0 | 0.0 | 0.9 | 0.00 | 0.00 | 0.00 | 100 | 1023.5 |
| 20260903022804 | 61 | 43 | 0.0 | 0.9 | 0.00 | 0.00 | 0.00 | 94 | 1022.3 |
| 20260903022751 | 61 | 269 | 0.0 | 0.9 | 0.00 | 0.00 | 0.00 | 94 | 1022.9 |
| 20260903022537 | 61 | 1 | 0.9 | 0.9 | 0.00 | 0.00 | 0.00 | 94 | 1022.7 |
| 20260903022306 | 61 | 28 | 0.0 | 0.9 | 0.00 | 0.00 | 0.00 | 94 | 1022.2 |
| 20260903021753 | 61 | 269 | 0.0 | 0.9 | 0.00 | 0.00 | 0.00 | 94 | 1022.7 |
| 20260903021544 | 61 | 309 | 0.0 | 0.9 | 0.00 | 0.00 | 0.00 | 100 | 1023.5 |
| 20260903021304 | 61 | 41 | 0.9 | 0.9 | 0.00 | 0.00 | 0.00 | 94 | 1022.4 |
| 20260903021258 | 61 | 45 | 0.9 | 0.9 | 0.00 | 0.00 | 0.00 | 94 | 1022.9 |
| 20260903020804 | 61 | 288 | 0.0 | 0.9 | 0.00 | 0.00 | 0.00 | 94 | 1022.4 |
| 20260903020750 | 61 | 314 | 0.0 | 1.7 | 0.00 | 0.00 | 0.00 | 94 | 1023.0 |
| 20260903020304 | 61 | 11 | 0.0 | 1.7 | 0.00 | 0.00 | 0.00 | 94 | 1022.4 |
| 20260903020253 | 61 | 135 | 0.0 | 1.7 | 0.00 | 0.00 | 0.00 | 94 | 1022.9 |
| 20260903020044 | 61 | 0 | 0.0 | 0.9 | 0.00 | 0.00 | 0.00 | 100 | 1023.6 |
| 20260903015804 | 61 | 25 | 0.0 | 0.9 | 0.00 | 0.00 | 0.00 | 94 | 1022.3 |
| 20260903015755 | 61 | 20 | 0.0 | 0.9 | 0.00 | 0.00 | 0.00 | 94 | 1022.9 |
| 20260903015527 | 61 | 206 | 0.0 | 0.9 | 0.00 | 0.00 | 0.00 | 94 | 1022.7 |
| 20260903015306 | 61 | 254 | 0.0 | 0.9 | 0.00 | 0.00 | 0.00 | 94 | 1022.3 |
| 20260903014804 | 61 | 33 | 0.0 | 0.9 | 0.00 | 0.00 | 0.00 | 94 | 1022.3 |
| 20260903014753 | 61 | 45 | 0.0 | 0.9 | 0.00 | 0.00 | 0.00 | 94 | 1022.7 |
| 20260903014544 | 61 | 0 | 0.0 | 0.0 | 0.00 | 0.00 | 0.00 | 100 | 1023.4 |
| 20260903014304 | 61 | 246 | 0.0 | 0.9 | 0.00 | 0.00 | 0.00 | 94 | 1022.3 |
| 20260903014254 | 61 | 45 | 0.0 | 0.9 | 0.00 | 0.00 | 0.00 | 94 | 1022.7 |
| 20260903013804 | 61 | 11 | 0.0 | 0.9 | 0.00 | 0.00 | 0.00 | 93 | 1022.4 |
| 20260903013750 | 61 | 1 | 0.0 | 0.9 | 0.00 | 0.00 | 0.00 | 93 | 1022.9 |
| 20260903013252 | 61 | 45 | 0.0 | 0.9 | 0.00 | 0.00 | 0.00 | 93 | 1022.9 |
| 20260903013045 | 61 | 0 | 0.0 | 0.9 | 0.00 | 0.00 | 0.00 | 100 | 1023.6 |
| 20260903012804 | 61 | 322 | 0.0 | 0.9 | 0.00 | 0.00 | 0.00 | 93 | 1022.4 |
| 20260903012753 | 61 | 223 | 0.0 | 0.9 | 0.00 | 0.00 | 0.00 | 93 | 1022.9 |
| 20260903012542 | 61 | 20 | 0.0 | 1.7 | 0.00 | 0.00 | 0.00 | 93 | 1023.0 |
| 20260903012306 | 61 | 37 | 0.0 | 1.7 | 0.00 | 0.00 | 0.00 | 93 | 1022.4 |
| 20260903012255 | 61 | 20 | 0.0 | 1.7 | 0.00 | 0.00 | 0.00 | 93 | 1023.0 |
| 20260903011750 | 61 | 63 | 0.9 | 1.7 | 0.00 | 0.00 | 0.00 | 93 | 1023.0 |
| 20260903011548 | 61 | 51 | 0.0 | 0.9 | 0.00 | 0.00 | 0.00 | 100 | 1023.6 |
| 20260903011304 | 61 | 29 | 0.9 | 0.9 | 0.00 | 0.00 | 0.00 | 93 | 1022.5 |
| 20260903011257 | 61 | 28 | 0.9 | 0.9 | 0.00 | 0.00 | 0.00 | 93 | 1023.0 |
| 20260903010804 | 61 | 308 | 0.0 | 0.9 | 0.00 | 0.00 | 0.00 | 93 | 1022.4 |
| 20260903010749 | 61 | 223 | 0.0 | 0.9 | 0.00 | 0.00 | 0.00 | 93 | 1023.0 |
| 20260903010304 | 61 | 239 | 0.0 | 0.9 | 0.00 | 0.00 | 0.00 | 93 | 1022.4 |
| 20260903010251 | 61 | 223 | 0.0 | 0.9 | 0.00 | 0.00 | 0.00 | 93 | 1022.9 |
| 20260903010043 | 61 | 0 | 0.0 | 0.0 | 0.00 | 0.00 | 0.00 | 100 | 1023.6 |
| 20260903005804 | 61 | 6 | 0.0 | 0.9 | 0.00 | 0.00 | 0.00 | 93 | 1022.4 |
| 20260903005749 | 61 | 178 | 0.0 | 0.9 | 0.00 | 0.00 | 0.00 | 93 | 1023.0 |
| 20260903005252 | 61 | 45 | 0.0 | 0.9 | 0.00 | 0.00 | 0.00 | 93 | 1022.9 |
| 20260903005005 | 61 | 178 | 0.9 | 0.9 | 0.00 | 0.00 | 0.00 | 93 | 1023.0 |
| 20260903004947 | 61 | 45 | 0.0 | 0.9 | 0.00 | 0.00 | 0.00 | 93 | 1023.0 |
| 20260903004550 | 61 | 0 | 0.0 | 0.9 | 0.00 | 0.00 | 0.00 | 100 | 1023.7 |
| 20260903004304 | 61 | 177 | 0.9 | 0.9 | 0.00 | 0.00 | 0.00 | 93 | 1022.5 |
| 20260903003748 | 61 | 178 | 0.9 | 0.9 | 0.00 | 0.00 | 0.00 | 93 | 1023.1 |
| 20260903003304 | 61 | 218 | 0.0 | 0.9 | 0.00 | 0.00 | 0.00 | 93 | 1022.6 |
| 20260903003252 | 61 | 1 | 0.0 | 0.9 | 0.00 | 0.00 | 0.00 | 93 | 1023.1 |
| 20260903003050 | 61 | 0 | 0.0 | 0.9 | 0.00 | 0.00 | 0.00 | 100 | 1023.8 |
| 20260903002804 | 61 | 234 | 0.0 | 0.9 | 0.00 | 0.00 | 0.00 | 93 | 1022.6 |
| 20260903002748 | 61 | 223 | 0.0 | 0.9 | 0.00 | 0.00 | 0.00 | 93 | 1023.2 |
| 20260903002306 | 61 | 213 | 0.9 | 0.9 | 0.00 | 0.00 | 0.00 | 92 | 1022.5 |
| 20260903002250 | 61 | 223 | 0.9 | 0.9 | 0.00 | 0.00 | 0.00 | 92 | 1023.1 |
| 20260903001804 | 61 | 224 | 0.0 | 0.9 | 0.00 | 0.00 | 0.00 | 92 | 1022.6 |
| 20260903001749 | 61 | 223 | 0.0 | 0.9 | 0.00 | 0.00 | 0.00 | 92 | 1023.1 |
| 20260903001544 | 61 | 0 | 0.0 | 0.9 | 0.00 | 0.00 | 0.00 | 100 | 1023.9 |
| 20260903001304 | 61 | 353 | 0.0 | 0.9 | 0.00 | 0.00 | 0.00 | 92 | 1022.7 |
| 20260903001250 | 62 | 269 | 0.0 | 0.9 | 0.00 | 0.00 | 0.00 | 92 | 1023.1 |
| 20260903000804 | 62 | 272 | 0.0 | 0.9 | 0.00 | 0.00 | 0.00 | 92 | 1022.7 |
| 20260903000748 | 62 | 178 | 0.0 | 0.9 | 0.00 | 0.00 | 0.00 | 92 | 1023.1 |
| 20260903000513 | 62 | 314 | 0.0 | 0.9 | 0.00 | 0.00 | 0.00 | 93 | 1023.2 |
| 20260903000304 | 62 | 231 | 0.0 | 0.9 | 0.00 | 0.00 | 0.00 | 93 | 1022.7 |
| 20260903000042 | 61 | 0 | 0.0 | 0.0 | 0.00 | 0.00 | 0.00 | 100 | 1023.9 |
| 20260902235749 | 62 | 223 | 0.0 | 0.9 | 0.00 | 0.00 | 0.00 | 92 | 1023.2 |
| 20260902235306 | 62 | 247 | 0.0 | 0.9 | 0.00 | 0.00 | 0.00 | 92 | 1022.8 |
| 20260902235249 | 62 | 206 | 0.0 | 0.9 | 0.00 | 0.00 | 0.00 | 92 | 1023.3 |
| 20260902234804 | 62 | 258 | 0.0 | 0.9 | 0.00 | 0.00 | 0.00 | 92 | 1022.9 |
| 20260902234747 | 62 | 45 | 0.0 | 0.9 | 0.00 | 0.00 | 0.00 | 92 | 1023.5 |
| 20260902234551 | 62 | 0 | 0.0 | 0.9 | 0.00 | 0.00 | 0.00 | 100 | 1024.1 |
| 20260902234249 | 62 | 45 | 0.0 | 1.7 | 0.00 | 0.00 | 0.00 | 93 | 1023.4 |
| 20260902233804 | 62 | 227 | 0.0 | 0.9 | 0.00 | 0.00 | 0.00 | 93 | 1022.8 |
| 20260902233746 | 62 | 269 | 0.0 | 1.7 | 0.00 | 0.00 | 0.00 | 93 | 1023.4 |
| 20260902233523 | 62 | 135 | 0.9 | 0.9 | 0.00 | 0.00 | 0.00 | 93 | 1023.5 |
| 20260902233043 | 62 | 0 | 0.0 | 0.9 | 0.00 | 0.00 | 0.00 | 100 | 1024.1 |
| 20260902232804 | 62 | 203 | 0.0 | 0.9 | 0.00 | 0.00 | 0.00 | 92 | 1022.9 |
| 20260902232748 | 62 | 152 | 0.0 | 0.9 | 0.00 | 0.00 | 0.00 | 92 | 1023.4 |
| 20260902232306 | 63 | 174 | 0.9 | 0.9 | 0.00 | 0.00 | 0.00 | 92 | 1022.9 |
| 20260902232249 | 62 | 178 | 0.0 | 0.9 | 0.00 | 0.00 | 0.00 | 92 | 1023.5 |
| 20260902231804 | 63 | 224 | 0.0 | 0.9 | 0.00 | 0.00 | 0.00 | 92 | 1022.9 |
| 20260902231749 | 62 | 269 | 0.0 | 0.9 | 0.00 | 0.00 | 0.00 | 92 | 1023.4 |
| 20260902231551 | 62 | 93 | 0.0 | 0.9 | 0.00 | 0.00 | 0.00 | 100 | 1024.1 |
| 20260902231304 | 63 | 176 | 0.0 | 0.9 | 0.00 | 0.00 | 0.00 | 92 | 1022.9 |
| 20260902231254 | 63 | 178 | 0.0 | 0.9 | 0.00 | 0.00 | 0.00 | 92 | 1023.5 |
| 20260902230804 | 63 | 266 | 0.0 | 0.9 | 0.00 | 0.00 | 0.00 | 92 | 1023.0 |
| 20260902230751 | 63 | 63 | 0.0 | 0.9 | 0.00 | 0.00 | 0.00 | 92 | 1023.5 |
| 20260902230304 | 63 | 101 | 0.9 | 0.9 | 0.00 | 0.00 | 0.00 | 92 | 1023.0 |
| 20260902230302 | 63 | 89 | 0.9 | 0.9 | 0.00 | 0.00 | 0.00 | 92 | 1023.5 |
| 20260902230041 | 62 | 0 | 0.0 | 0.9 | 0.00 | 0.00 | 0.00 | 100 | 1024.2 |
| 20260902230022 | 63 | 89 | 0.9 | 0.9 | 0.00 | 0.00 | 0.00 | 91 | 1023.6 |
| 20260902225804 | 63 | 100 | 0.9 | 0.9 | 0.00 | 0.00 | 0.00 | 91 | 1023.0 |
| 20260902225305 | 63 | 178 | 0.0 | 0.9 | 0.00 | 0.00 | 0.00 | 91 | 1023.6 |
| 20260902224803 | 63 | 349 | 0.0 | 0.9 | 0.00 | 0.00 | 0.00 | 91 | 1023.1 |
| 20260902224748 | 63 | 1 | 0.0 | 0.9 | 0.00 | 0.00 | 0.00 | 91 | 1023.6 |
| 20260902224600 | 63 | 0 | 0.0 | 0.9 | 0.00 | 0.00 | 0.00 | 100 | 1024.2 |
| 20260902224252 | 63 | 269 | 0.0 | 0.9 | 0.00 | 0.00 | 0.00 | 91 | 1023.6 |
| 20260902223804 | 63 | 153 | 0.0 | 0.9 | 0.00 | 0.00 | 0.00 | 91 | 1023.1 |
| 20260902223746 | 63 | 152 | 0.0 | 0.9 | 0.00 | 0.00 | 0.00 | 91 | 1023.6 |
| 20260902223304 | 63 | 193 | 0.0 | 0.9 | 0.00 | 0.00 | 0.00 | 91 | 1023.2 |
| 20260902223253 | 63 | 178 | 0.0 | 0.9 | 0.00 | 0.00 | 0.00 | 91 | 1023.7 |
| 20260902223052 | 63 | 0 | 0.0 | 0.9 | 0.00 | 0.00 | 0.00 | 100 | 1024.3 |
| 20260902222804 | 63 | 336 | 0.0 | 0.9 | 0.00 | 0.00 | 0.00 | 91 | 1023.1 |
| 20260902222745 | 64 | 1 | 0.0 | 0.9 | 0.00 | 0.00 | 0.00 | 91 | 1023.7 |
| 20260902222306 | 64 | 17 | 0.0 | 0.9 | 0.00 | 0.00 | 0.00 | 91 | 1023.1 |
| 20260902222247 | 64 | 1 | 0.0 | 0.9 | 0.00 | 0.00 | 0.00 | 91 | 1023.6 |
| 20260902221804 | 64 | 287 | 0.0 | 0.9 | 0.00 | 0.00 | 0.00 | 91 | 1023.2 |
| 20260902221746 | 64 | 45 | 0.0 | 0.9 | 0.00 | 0.00 | 0.00 | 91 | 1023.7 |
| 20260902221558 | 63 | 9 | 0.0 | 0.9 | 0.00 | 0.00 | 0.00 | 100 | 1024.3 |
| 20260902221247 | 64 | 152 | 0.0 | 0.9 | 0.00 | 0.00 | 0.00 | 91 | 1023.7 |
| 20260902220804 | 64 | 225 | 0.0 | 0.9 | 0.00 | 0.00 | 0.00 | 90 | 1023.1 |
| 20260902220745 | 64 | 178 | 0.0 | 0.9 | 0.00 | 0.00 | 0.00 | 90 | 1023.7 |
| 20260902220304 | 64 | 172 | 0.0 | 0.9 | 0.00 | 0.00 | 0.00 | 90 | 1023.1 |
| 20260902220247 | 64 | 45 | 0.0 | 0.9 | 0.00 | 0.00 | 0.00 | 90 | 1023.6 |
| 20260902220056 | 64 | 0 | 0.0 | 0.9 | 0.00 | 0.00 | 0.00 | 100 | 1024.3 |
| 20260902215804 | 64 | 79 | 0.0 | 0.9 | 0.00 | 0.00 | 0.00 | 90 | 1023.1 |
| 20260902215746 | 64 | 1 | 0.0 | 0.9 | 0.00 | 0.00 | 0.00 | 90 | 1023.6 |
| 20260902215306 | 64 | 256 | 0.0 | 0.9 | 0.00 | 0.00 | 0.00 | 90 | 1023.1 |
| 20260902215246 | 64 | 1 | 0.0 | 0.9 | 0.00 | 0.00 | 0.00 | 90 | 1023.6 |
| 20260902214804 | 64 | 252 | 0.0 | 0.9 | 0.00 | 0.00 | 0.00 | 90 | 1023.1 |
| 20260902214745 | 64 | 45 | 0.0 | 0.9 | 0.00 | 0.00 | 0.00 | 90 | 1023.6 |
| 20260902214543 | 64 | 0 | 0.0 | 0.0 | 0.00 | 0.00 | 0.00 | 100 | 1024.3 |
| 20260902214304 | 64 | 179 | 0.0 | 0.9 | 0.00 | 0.00 | 0.00 | 90 | 1023.1 |
| 20260902214247 | 64 | 223 | 0.0 | 0.9 | 0.00 | 0.00 | 0.00 | 90 | 1023.6 |
| 20260902213804 | 64 | 166 | 0.0 | 0.9 | 0.00 | 0.00 | 0.00 | 90 | 1023.1 |
| 20260902213744 | 65 | 178 | 0.0 | 0.9 | 0.00 | 0.00 | 0.00 | 90 | 1023.5 |
| 20260902213728 | 65 | 178 | 0.0 | 0.9 | 0.00 | 0.00 | 0.00 | 89 | 1023.6 |
| 20260902213304 | 65 | 173 | 0.0 | 0.9 | 0.00 | 0.00 | 0.00 | 90 | 1023.1 |
| 20260902213042 | 64 | 0 | 0.0 | 0.9 | 0.00 | 0.00 | 0.00 | 100 | 1024.2 |
| 20260902212744 | 65 | 45 | 0.0 | 0.9 | 0.00 | 0.00 | 0.00 | 89 | 1023.5 |
| 20260902212245 | 65 | 178 | 0.0 | 0.9 | 0.00 | 0.00 | 0.00 | 89 | 1023.6 |
| 20260902211804 | 65 | 188 | 0.0 | 0.9 | 0.00 | 0.00 | 0.00 | 89 | 1023.0 |
| 20260902211744 | 65 | 223 | 0.0 | 0.9 | 0.00 | 0.00 | 0.00 | 89 | 1023.5 |
| 20260902211546 | 65 | 0 | 0.0 | 0.9 | 0.00 | 0.00 | 0.00 | 100 | 1024.1 |
| 20260902211246 | 65 | 269 | 0.0 | 0.9 | 0.00 | 0.00 | 0.00 | 89 | 1023.5 |
| 20260902210804 | 65 | 242 | 0.0 | 0.9 | 0.00 | 0.00 | 0.00 | 89 | 1022.9 |
| 20260902210744 | 65 | 223 | 0.0 | 0.9 | 0.00 | 0.00 | 0.00 | 89 | 1023.5 |
| 20260902210304 | 65 | 236 | 0.0 | 0.9 | 0.00 | 0.00 | 0.00 | 89 | 1022.9 |
| 20260902210250 | 65 | 223 | 0.0 | 0.9 | 0.00 | 0.00 | 0.00 | 89 | 1023.4 |
| 20260902210048 | 65 | 0 | 0.0 | 0.9 | 0.00 | 0.00 | 0.00 | 100 | 1024.0 |
| 20260902210011 | 66 | 206 | 0.0 | 0.9 | 0.00 | 0.00 | 0.00 | 89 | 1023.4 |
| 20260902205804 | 66 | 243 | 0.0 | 0.9 | 0.00 | 0.00 | 0.00 | 89 | 1022.9 |
| 20260902205306 | 66 | 205 | 0.0 | 0.9 | 0.00 | 0.00 | 0.00 | 89 | 1022.9 |
| 20260902205245 | 66 | 206 | 0.0 | 0.9 | 0.00 | 0.00 | 0.00 | 89 | 1023.4 |
| 20260902204816 | 66 | 152 | 0.0 | 0.9 | 0.00 | 0.00 | 0.00 | 89 | 1023.3 |
| 20260902204810 | 66 | 296 | 0.0 | 0.9 | 0.00 | 0.00 | 0.00 | 89 | 1023.3 |
| 20260902204804 | 66 | 246 | 0.0 | 0.9 | 0.00 | 0.00 | 0.00 | 89 | 1022.8 |
| 20260902204548 | 55 | 0 | 0.0 | 0.9 | 0.00 | 0.00 | 0.00 | 100 | 1023.9 |
| 20260902204304 | 66 | 179 | 0.0 | 0.9 | 0.00 | 0.00 | 0.00 | 89 | 1022.7 |
| 20260902203743 | 66 | 161 | 0.0 | 0.9 | 0.00 | 0.00 | 0.00 | 89 | 1023.3 |
| 20260902203304 | 66 | 95 | 0.0 | 0.9 | 0.00 | 0.00 | 0.00 | 88 | 1022.7 |
| 20260902203245 | 66 | 178 | 0.0 | 0.9 | 0.00 | 0.00 | 0.00 | 88 | 1023.3 |
| 20260902203048 | 55 | 0 | 0.0 | 0.9 | 0.00 | 0.00 | 0.00 | 100 | 1023.8 |